Location: Melbourne
(37.8170°S, 144.9670°E)
Time: 22:49:56
(UTC+10:00)

ADEOS Rocket - Visible Passes

Search period start: 05 July 2015 00:00
Search period end: 15 July 2015 00:00
Orbit: 860 x 1306 km, 98.7° (Epoch: 03 July)

Date Brightness Start Highest point End Pass type
(mag) Time Alt. Az. Time Alt. Az. Time Alt. Az.
05 Jul 4.0 06:23:32 10° NE 06:30:13 52° ESE 06:36:21 10° S visible
05 Jul 3.7 19:30:30 33° NNE 19:30:30 33° NNE 19:33:50 10° N visible
06 Jul 5.3 05:36:41 10° ENE 05:41:35 23° ESE 05:46:22 10° SSE visible
06 Jul 4.3 18:40:45 16° ENE 18:40:45 16° ENE 18:42:55 10° NE visible
06 Jul 4.4 20:27:42 28° NW 20:27:42 28° NW 20:30:24 10° NW visible
07 Jul 3.8 06:31:13 10° NNE 06:37:57 60° ESE 06:44:05 10° S visible
07 Jul 3.5 19:37:58 40° NNE 19:37:58 40° NNE 19:41:42 10° N visible
08 Jul 5.1 05:44:03 10° ENE 05:49:16 26° ESE 05:54:17 10° SSE visible
08 Jul 4.1 18:48:12 20° ENE 18:48:12 20° ENE 18:51:15 10° NE visible
08 Jul 4.5 20:35:08 27° WNW 20:35:08 27° WNW 20:37:56 10° NW visible
09 Jul 3.5 06:38:56 10° NNE 06:45:40 70° ESE 06:51:48 10° S visible
09 Jul 3.3 19:45:23 47° N 19:45:23 47° N 19:49:31 10° N visible
10 Jul 4.9 05:51:28 10° NE 05:56:57 29° ESE 06:02:09 10° S visible
10 Jul 3.9 18:55:37 25° ENE 18:55:37 25° ENE 18:59:27 10° NNE visible
10 Jul 4.6 20:42:33 26° WNW 20:42:33 26° WNW 20:45:25 10° NW visible
11 Jul 5.7 05:06:34 10° E 05:08:28 12° ESE 05:10:42 10° SE visible
11 Jul 3.3 06:46:42 10° NNE 06:53:24 81° ESE 06:59:29 10° S visible
11 Jul 3.2 19:52:48 55° N 19:52:48 55° N 19:57:18 10° NNW visible
12 Jul 4.7 05:58:55 10° NE 06:04:38 34° ESE 06:09:59 10° S visible
12 Jul 3.6 19:03:01 31° ENE 19:03:01 31° ENE 19:07:34 10° NNE visible
12 Jul 4.8 20:49:58 24° WNW 20:49:58 24° WNW 20:52:52 10° NW visible
13 Jul 5.6 05:13:19 10° E 05:16:05 14° ESE 05:19:06 10° SSE visible
13 Jul 3.1 06:54:30 10° NNE 07:01:07 87° WNW 07:07:09 10° SSW visible
13 Jul 4.6 18:13:13 11° E 18:13:13 11° E 18:14:45 10° ENE visible
13 Jul 3.1 20:00:10 61° NNW 20:00:10 61° NNW 20:05:02 10° NNW visible
14 Jul 4.4 06:06:27 10° NE 06:12:19 39° ESE 06:17:48 10° S visible
14 Jul 3.3 19:10:23 38° ENE 19:10:23 38° ENE 19:15:38 10° NNE visible
14 Jul 4.9 20:57:19 22° W 20:57:19 22° W 21:00:14 10° WNW visible
